Location: G�nzburg
(48.4565°N, 10.3217°E)
Time: 10:08:29
(UTC+01:00)

Tiangong 2 - Visible Passes

Search period start: 21 January 2018 00:00
Search period end: 31 January 2018 00:00
Orbit: 384 x 390 km, 42.8° (Epoch: 20 January)

Date Brightness Start Highest point End Pass type
(mag) Time Alt. Az. Time Alt. Az. Time Alt. Az.
21 Jan 4.1 05:20:02 13° SE 05:20:02 13° SE 05:21:05 10° ESE visible
21 Jan 2.9 06:52:42 10° SW 06:55:30 28° S 06:58:17 10° ESE visible
22 Jan 2.9 05:56:28 23° S 05:56:56 24° SSE 05:59:35 10° ESE visible
23 Jan 4.5 05:00:32 11° ESE 05:00:32 11° ESE 05:00:46 10° ESE visible
23 Jan 2.6 06:32:49 17° SW 06:34:41 29° S 06:37:31 10° ESE visible
24 Jan 3.0 05:36:50 25° SSE 05:36:50 25° SSE 05:38:53 10° ESE visible
24 Jan 2.9 07:09:46 10° WSW 07:12:26 24° SSW 07:15:06 10° SE visible
25 Jan 2.5 06:13:05 25° SSW 06:13:51 28° S 06:16:38 10° SE visible
26 Jan 3.8 05:17:03 17° SE 05:17:03 17° SE 05:18:04 10° ESE visible
26 Jan 3.1 06:49:19 11° WSW 06:51:33 19° SSW 06:53:55 10° SSE visible
27 Jan 2.8 05:53:17 23° S 05:53:17 23° S 05:55:37 10° SE visible
28 Jan 3.4 06:29:33 13° SW 06:30:34 14° SSW 06:32:22 10° S visible
29 Jan 3.7 05:33:34 14° SSE 05:33:34 14° SSE 05:34:23 10° SSE visible
